Skip Page Navigation
NASA JPL Caltech
NASA Logo - Jet Propulsion Laboratory + View the NASA Portal
+ Center for Near-Earth Object Studies
JPL Home Earth Solar System Stars & Galaxies Technology
JPL Solar System Dynamics
BODIES ORBITS EPHEMERIDES TOOLS PHYSICAL DATA DISCOVERY FAQ SITE MAP
JPL Small-Body Database Browser
Search: [ help ]  
243096 Klauswerner (2007 RX15)
Classification: Main-belt Asteroid          SPK-ID: 2243096
Ephemeris | Orbit Diagram | Orbital Elements | Mission Design | Physical Parameters | Discovery Circumstances | Close-Approach Data ]

[ hide orbit diagram ]

For accurate long-term ephemerides, please instead use our Horizons system.This orbit viewer was implemented using two-body methods, and hence should not be used for determining accurate long-term trajectories (over several years or decades) or planetary encounter circumstances.


Orbital Elements at Epoch 2459200.5 (2020-Dec-17.0) TDB
Reference: JPL 20 (heliocentric ecliptic J2000)
 Element Value Uncertainty (1-sigma)   Units 
e .07427873490121434 5.5871e-08  
a 2.97277269336629 3.5204e-08 au
q 2.751958898554166 1.5572e-07 au
i 10.13301924182861 5.0899e-06 deg
node 218.9529155203446 3.4296e-05 deg
peri 168.8065102308676 5.2251e-05 deg
M 171.1955261983328 3.9486e-05 deg
tp 2458310.211236840576
(2018-Jul-10.71123684)
0.00020366 TDB
period 1872.151462451674
5.13
3.3255e-05
9.105e-08
d
yr
n .192292134060864 3.4157e-09 deg/d
Q 3.193586488178414 3.7818e-08 au
  Orbit Determination Parameters
   # obs. used (total)      282  
   data-arc span      6433 days (17.61 yr)  
   first obs. used      2002-09-12  
   last obs. used      2020-04-23  
   planetary ephem.      DE431  
   SB-pert. ephem.      SB431-N16  
   condition code      0  
   norm. resid. RMS      .43693  
   source      ORB  
   producer      Otto Matic  
   solution date      2020-Nov-12 00:58:40  

Additional Information
 Earth MOID = 1.75669 au 
 Jupiter MOID = 2.21893 au 
 T_jup = 3.234 
[ hide covariance matrix ]
Orbital Elements at Epoch 2457478.5 (2016-Mar-31.0) TDB
Reference: JPL 20 (heliocentric ecliptic J2000)
 Element Value Uncertainty (1-sigma)   Units 
e .07328794564226916 5.5663e-08  
q 2.755248894911293 1.5487e-07 au
tp 2458313.372857195502
(2018-Jul-13.87285720)
0.00020692 TDB
node 218.9761176708398 3.4296e-05 deg
peri 169.5230225863254 5.2769e-05 deg
i 10.13208063399677 5.0896e-06 deg
  Orbit Determination Parameters
   # obs. used (total)      282  
   data-arc span      6433 days (17.61 yr)  
   first obs. used      2002-09-12  
   last obs. used      2020-04-23  
   planetary ephem.      DE431  
   SB-pert. ephem.      SB431-N16  
   condition code      0  
   norm. resid. RMS      .43693  
   source      ORB  
   producer      Otto Matic  
   solution date      2020-Nov-12 00:58:40  

Additional Information
 Jupiter MOID = 2.21893 au 
 T_jup = 3.234 
Orbit Covariance (6×6)
  e q tp node peri i
e 3.098323395167442E-15 -8.460774118655125E-15 -1.430948594882932E-12 1.780380159336138E-14 -4.700816512225024E-13 1.649926834509027E-15
q -8.460774118655125E-15 2.398425772571851E-14 4.610107458844254E-12 -4.784166940958876E-14 1.336267929766925E-12 -2.849016502323892E-15
tp -1.430948594882932E-12 4.610107458844254E-12 4.281417251291799E-8 -2.438738527828649E-11 8.304363285019228E-9 -8.927953760806512E-12
node 1.780380159336138E-14 -4.784166940958876E-14 -2.438738527828649E-11 1.176219537357868E-9 -1.163039025293386E-9 -1.864852856054352E-11
peri -4.700816512225024E-13 1.336267929766925E-12 8.304363285019228E-9 -1.163039025293386E-9 2.784543087213129E-9 1.654341370319466E-11
i 1.649926834509027E-15 -2.849016502323892E-15 -8.927953760806512E-12 -1.864852856054352E-11 1.654341370319466E-11 2.590437269528193E-11

Ephemeris | Orbit Diagram | Orbital Elements | Mission Design | Physical Parameters | Discovery Circumstances | Close-Approach Data ]

Physical Parameter Table
Parameter Symbol Value Units Sigma Reference Notes
absolute magnitude H 15.97   n/a E2021B55  
diameter diameter 4.943 km 1.407 urn:nasa:pds:neowise_diameters_albedos::2.0[mainbelt] (http://adsabs.harvard.edu/abs/2011ApJ...741...68M)  
geometric albedo albedo 0.029   0.023 urn:nasa:pds:neowise_diameters_albedos::2.0[mainbelt] (http://adsabs.harvard.edu/abs/2011ApJ...741...68M)  

243096 Klauswerner           Discovered 2007 Sept. 12 by R. Apitzsch at Wildberg.
Klaus Werner (b. 1957) is Professor of astronomy at the University of Tübingen. His research focuses on compact objects and optical and UV astronomy.
NOTE: some special characters may not display properly (any characters within {} are an attempt to place the proper accent above a character)
Reference: 20120207/MPCPages.arcLast Updated: 2012-02-09

[ hide close-approach data ]
Close-Approach Data   ...sorted by Date/Time (TDB)
Date/Time (TDB) Time Uncertainty
(days_HH:MM)
Body Nominal Distance (au) Minimum Distance (au) Maximum Distance (au) V-relative (km/s) V-infinity (km/s) JD (TDB) Time Uncertainty (minutes) Semi-major axis (km) Semi-minor axis (km) range-LOV angle (deg) N-sigma BP Orbit Ref. Reference Modified
2080-Sep-05 22:34 00:01 Europ 0.0053572527762445 0.00532651810750631 0.00538799125070391 4.51308022887641 4.51307978927757 2481013.440429983 1.28640484531038 1548.37761088711 63.1999132584027 -8.36983004821974 1912.28325267942 T 20 CATAB v2.0f-lin.ifort 2020-Nov-12 00:58:41 2020-Nov-12 00:58

Alternate Designations
 2007 RX15 = 2007 VG1 
Ephemeris | Orbit Diagram | Orbital Elements | Mission Design | Physical Parameters | Discovery Circumstances | Close-Approach Data ]
ABOUT SSD CREDITS/AWARDS PRIVACY/COPYRIGHT GLOSSARY LINKS
FirstGov 2021-Apr-14 00:13 UT
(server date/time)  
NASA Home Page
Site Manager:   Ryan S. Park
Webmaster  Alan B. Chamberlin